Wind_Speed
6 6 6 6 4 2 2 5 3 2 4 3 1 1 1 1 2 2 1 2 2 2 2 2 4 4 3 5 6 6 4 3 5 4 3 3 3 5 10 9 7 12 16 15 14 14 14 13 12 12 12 13 13 13 14 14 14 14 15 14 14 14 13 13 12 14 15 15 16 16 16 16 15 15 14 15 17 19 21 23 24 24 24 25 24 21 19 18 18 17 15 14 13 11 11 13 13
6 6 6 4 2 1 1 3 4 3 5 3 2 2 1 2 1 4 3 1 3 2 2 7 8 7 6 7 6 5 3 1 3 3 3 1 5 6 6 6 10 13 16 17 16 16 15 14 13 12 12 13 13 13 13 14 14 14 14 13 14 13 12 12 11 14 15 15 16 16 15 15 15 14 14 15 17 19 21 21 23 23 23 25 24 22 19 18 18 18 17 15 14 13 12 12 13
7 5 5 2 1 3 1 4 4 2 5 3 2 3 1 1 4 6 5 4 7 7 5 6 7 5 3 5 4 3 2 3 1 1 1 2 3 4 4 6 12 14 16 17 16 16 14 14 13 12 12 13 13 12 13 13 13 14 13 13 13 13 11 11 12 14 16 15 15 15 15 15 14 14 14 15 16 18 19 21 22 22 23 24 24 22 20 19 18 18 17 16 15 14 14 14 14
6 5 5 1 1 4 4 4 3 4 4 3 2 4 2 4 7 6 5 4 5 5 3 2 4 2 3 5 2 2 0 3 2 2 1 2 3 4 5 9 14 15 16 17 16 15 14 14 13 13 13 13 13 12 13 12 13 13 13 12 12 12 11 11 13 15 15 15 15 15 15 15 14 14 14 15 15 17 18 20 21 21 23 23 23 22 20 19 18 17 17 16 15 15 16 16 16
5 4 5 1 2 2 3 3 3 4 3 4 3 4 5 6 7 5 4 4 4 4 4 3 3 2 2 3 1 1 2 3 3 2 0 2 5 6 8 12 15 15 16 16 15 14 13 13 13 13 14 14 13 13 13 12 13 13 12 12 12 11 11 12 13 14 14 14 14 14 14 14 14 14 14 13 14 15 17 18 19 20 22 23 23 22 20 18 18 17 16 16 16 17 17 17 16
2 1 5 6 3 2 3 3 3 2 4 5 4 5 6 6 6 5 2 2 0 3 3 3 4 3 2 1 0 1 2 2 3 2 0 3 6 7 10 13 14 14 15 16 15 14 12 12 12 11 13 13 13 13 13 12 12 13 13 12 12 11 11 12 12 13 13 14 14 13 13 13 13 13 12 12 12 14 15 16 17 19 21 22 22 21 20 18 17 17 16 16 17 18 17 16 16
1 1 4 6 3 3 4 4 4 2 3 5 4 5 6 6 5 5 1 1 3 2 2 2 4 6 2 1 0 1 2 2 2 1 1 3 7 9 11 13 14 13 14 16 14 13 12 11 11 11 11 12 12 13 12 12 12 12 12 12 12 11 11 11 11 12 12 13 12 12 12 12 12 12 11 11 12 12 13 15 16 18 20 20 20 20 19 18 17 17 16 16 16 17 17 16 16
3 1 1 5 3 4 4 3 3 2 1 3 4 5 7 7 5 5 2 1 1 1 3 1 2 5 0 1 1 2 3 0 1 1 2 4 8 11 12 13 14 12 14 16 14 13 12 11 11 11 11 11 12 12 12 12 12 12 12 11 11 11 11 11 11 11 12 12 11 11 12 12 11 10 10 10 10 11 12 14 15 17 19 19 19 19 18 17 17 16 16 16 16 16 16 16 15
5 3 1 5 3 3 4 2 1 2 2 3 3 3 4 4 4 3 2 1 1 1 1 4 0 2 2 3 0 4 2 2 3 2 2 4 9 13 14 14 13 12 14 16 14 13 12 11 10 11 11 11 11 12 12 11 12 12 12 11 11 11 11 11 11 10 11 11 10 11 11 11 11 10 9 8 9 10 12 13 14 16 18 18 18 18 18 17 16 16 16 16 16 16 16 15 14
5 4 2 4 3 4 3 1 1 1 3 3 3 5 4 4 3 2 3 2 1 2 1 2 3 2 4 3 2 2 0 3 4 4 2 6 11 15 17 15 14 12 14 16 14 12 12 11 10 10 11 11 12 12 12 11 12 12 12 12 11 11 11 11 11 11 10 10 10 10 10 10 10 9 8 8 9 10 11 12 13 15 17 17 17 17 17 17 16 16 16 16 16 16 15 15 14
3 4 3 4 4 3 2 3 2 3 4 3 2 6 5 5 4 2 2 3 1 1 2 1 3 3 4 1 3 1 2 3 5 5 4 7 13 17 18 18 16 14 15 16 14 13 12 12 11 11 11 12 12 12 12 12 12 12 13 12 12 11 11 10 11 10 9 9 9 9 9 9 9 9 8 8 9 9 10 11 13 15 16 17 16 17 17 17 16 16 16 16 16 16 15 15 14
2 3 4 4 3 3 4 5 3 3 5 3 1 5 3 6 5 4 3 4 1 1 2 1 3 5 4 2 3 2 3 4 6 7 6 7 13 17 19 19 17 16 16 16 15 14 12 12 11 11 12 12 12 13 12 12 12 12 13 12 12 12 11 10 10 9 9 8 7 8 8 8 8 8 8 8 9 9 9 11 12 14 16 16 16 17 17 17 16 15 16 16 15 15 15 14 13
4 2 5 3 2 4 4 5 3 1 3 3 4 3 3 5 5 7 7 4 2 3 1 2 4 5 3 2 3 2 5 7 8 8 8 8 12 16 18 18 17 17 16 17 16 13 13 12 11 11 12 12 12 13 13 12 12 12 13 12 12 11 11 10 10 9 8 7 7 7 7 7 8 8 8 8 8 8 9 10 12 14 15 15 16 17 17 17 16 15 15 15 15 14 14 14 13
3 3 5 3 2 3 5 3 2 2 3 5 3 2 1 2 4 7 8 5 1 3 1 2 5 4 2 2 3 3 8 10 10 9 10 11 13 15 18 19 18 18 17 17 16 15 15 12 12 12 11 13 13 14 13 12 12 11 12 12 12 11 11 11 10 10 8 7 6 7 7 7 7 7 7 7 7 7 8 9 11 12 13 14 15 17 18 18 17 16 15 15 15 15 15 15 14
3 3 5 4 2 2 3 2 3 5 5 4 2 2 2 0 4 5 5 6 3 3 1 2 3 2 2 4 4 6 12 15 13 10 12 13 13 15 17 18 19 19 18 18 18 17 17 12 12 14 12 13 13 12 13 12 11 11 11 12 13 12 11 11 10 9 8 7 7 7 7 8 8 8 8 7 7 7 8 8 9 10 12 13 14 16 18 18 17 17 16 15 15 14 15 15 15
3 4 5 4 2 2 4 2 3 3 5 5 2 1 4 1 2 3 3 4 3 2 3 1 2 1 3 5 5 7 18 18 13 12 14 16 15 15 15 16 17 18 18 18 18 17 17 13 11 15 13 14 13 10 11 12 11 10 11 11 12 13 12 11 10 9 9 8 8 8 8 8 8 8 7 7 7 7 7 7 8 9 10 12 13 15 17 17 17 17 17 16 15 15 15 15 16
3 4 5 3 3 4 5 4 5 4 5 5 4 2 5 1 1 2 2 5 5 2 4 2 3 2 3 2 1 14 23 18 15 14 15 17 16 16 15 16 16 16 16 16 16 15 17 15 12 15 13 14 16 12 11 12 11 10 10 11 12 13 13 12 11 10 9 9 9 8 8 8 8 8 7 7 8 7 7 7 7 7 9 10 12 15 16 16 16 16 17 17 16 16 15 16 16
5 4 4 3 4 4 5 7 7 4 5 6 5 4 8 5 2 1 1 7 4 2 4 3 4 3 1 1 7 18 23 19 18 17 17 18 16 17 16 16 16 17 17 16 16 15 17 17 15 15 12 11 15 15 14 13 13 12 10 11 12 12 12 12 11 10 10 10 9 9 9 9 9 8 7 8 9 8 8 7 6 7 8 10 12 14 15 14 15 16 16 17 17 17 16 17 16
4 3 4 3 5 4 5 7 6 3 4 6 5 4 6 6 5 3 2 1 1 2 2 5 5 2 0 3 9 16 20 20 19 19 19 17 17 19 17 17 17 17 17 16 17 16 17 17 16 17 14 11 12 13 15 14 14 13 12 11 11 12 12 12 11 10 10 9 9 9 10 9 9 9 8 9 9 9 8 8 7 7 8 9 11 12 13 13 14 15 16 17 17 17 18 17 17
3 4 4 4 6 4 4 6 7 5 4 7 4 3 2 3 4 2 3 3 1 3 4 0 2 6 4 4 8 14 18 19 19 19 18 17 17 18 18 18 18 18 17 17 17 17 17 16 17 18 16 14 12 12 14 13 13 13 12 12 12 13 14 13 13 11 10 10 9 10 10 9 9 10 11 10 10 10 9 9 8 7 9 9 10 11 11 11 12 14 15 16 17 17 18 18 17
2 4 3 5 4 1 3 6 6 4 4 7 5 3 1 3 2 2 6 5 3 7 7 7 9 10 9 7 7 13 17 17 18 18 17 17 16 17 18 18 17 17 16 16 16 16 17 17 18 19 19 18 15 12 13 14 15 14 12 12 13 14 14 14 14 13 11 10 9 10 11 9 9 11 12 12 11 11 10 10 9 8 10 10 10 10 9 9 10 13 14 15 16 17 18 18 18
3 2 3 5 4 1 3 4 3 3 4 5 6 4 3 2 1 3 8 6 6 6 6 9 9 10 12 10 10 12 14 15 16 18 18 18 18 18 17 17 16 16 16 16 16 16 16 17 18 19 19 20 18 14 14 15 16 16 14 13 13 15 16 14 14 14 12 10 9 10 10 9 10 11 13 13 13 11 10 10 8 8 12 12 10 9 8 9 9 12 13 15 16 17 18 18 18
3 1 1 2 3 1 2 2 2 4 7 5 6 3 2 3 1 2 8 8 7 4 5 7 7 10 14 12 11 11 12 14 16 19 20 20 20 20 19 18 17 16 16 16 16 15 15 16 18 19 19 19 20 16 15 15 15 16 15 14 13 15 17 15 16 15 13 12 11 10 9 9 10 10 12 14 14 12 10 9 8 8 13 13 11 10 9 10 10 12 13 14 16 17 18 17 17
6 1 1 0 3 3 1 2 2 5 6 5 4 2 2 4 3 1 5 9 5 4 4 3 7 11 14 11 9 9 11 14 16 18 20 21 21 20 19 18 16 15 15 16 15 15 16 16 17 19 19 20 20 18 17 16 15 16 16 15 15 17 18 17 17 16 14 13 12 10 9 9 10 9 11 14 13 12 11 11 9 9 14 14 12 11 10 11 11 12 13 15 16 17 17 16 16
5 3 2 0 1 3 2 3 1 3 4 2 3 2 3 5 3 0 7 9 4 3 3 5 8 11 10 9 8 8 10 12 14 16 17 19 20 19 18 17 17 16 16 16 16 15 15 16 17 19 19 20 21 21 19 16 16 17 17 17 17 18 19 17 15 15 14 13 11 11 11 11 10 10 11 13 11 11 13 13 11 11 14 13 12 11 9 11 12 12 13 15 16 17 17 16 15
1 4 2 1 1 4 2 1 2 1 0 2 4 2 5 2 2 4 7 6 1 3 5 5 7 9 8 7 8 9 9 11 14 15 16 17 18 19 19 18 18 17 17 16 16 15 14 15 15 17 18 20 22 23 21 18 18 19 19 18 17 18 19 17 16 17 13 13 14 13 11 10 11 12 13 13 12 12 14 13 11 12 13 12 11 9 9 12 13 11 13 15 16 17 17 15 14
2 4 2 2 1 4 1 3 3 2 2 2 4 5 5 4 2 4 5 2 4 6 6 4 6 8 8 6 6 9 10 12 15 15 15 16 18 20 20 19 19 18 17 16 16 15 13 13 13 13 16 19 23 25 22 20 20 20 20 18 18 20 19 16 17 17 12 13 15 12 10 10 11 12 12 12 13 14 14 11 10 11 13 13 11 9 12 14 13 12 13 15 16 17 17 16 14
2 3 1 2 4 4 2 3 4 1 1 4 6 4 4 4 1 6 3 2 4 6 6 4 6 6 6 5 5 7 9 13 15 15 17 19 21 22 22 21 20 17 16 16 14 13 11 11 11 12 15 19 22 24 24 23 22 21 20 20 20 19 16 15 16 15 13 13 11 8 9 12 12 12 11 11 12 13 13 11 11 11 13 14 12 12 16 17 14 13 14 15 15 16 17 16 15
2 3 0 4 8 4 2 2 4 4 2 5 6 1 5 3 7 6 2 3 3 6 6 5 6 5 4 5 5 6 10 12 14 17 20 21 21 21 21 20 18 17 16 13 12 11 10 9 10 12 15 18 22 24 25 24 24 22 21 21 21 19 17 17 17 15 14 13 10 10 12 14 15 14 14 14 13 14 14 15 15 14 14 15 15 17 19 18 16 16 16 16 15 15 17 17 16
0 3 2 3 7 5 2 1 2 5 3 4 4 2 6 8 10 6 1 5 6 5 6 6 6 5 5 5 5 6 10 13 15 19 21 20 19 20 20 18 16 16 15 12 11 11 11 10 11 13 16 19 22 24 25 25 24 22 23 22 19 19 19 18 17 14 12 11 12 13 13 14 15 15 15 15 16 16 16 16 16 16 17 17 19 20 20 19 17 17 16 16 14 15 17 18 18
1 1 2 3 2 4 5 1 4 6 2 2 4 2 6 9 10 5 3 6 7 7 7 7 6 6 5 6 6 7 9 14 17 20 21 20 20 19 19 18 16 16 14 13 12 11 12 12 13 15 18 20 23 24 24 25 23 21 24 25 23 22 21 19 16 13 12 12 12 13 14 14 14 13 13 14 14 14 14 15 15 15 17 18 19 19 18 19 17 17 16 14 14 17 19 19 20
3 1 3 3 1 5 8 2 6 5 1 1 4 3 7 9 9 4 3 5 6 8 8 7 8 7 7 6 7 7 8 14 17 19 21 21 21 20 19 18 17 17 15 14 13 13 14 14 15 17 19 20 22 24 24 25 24 22 24 24 24 22 20 19 16 14 13 12 12 14 16 15 14 13 13 13 14 15 16 17 17 17 17 18 18 17 17 17 15 15 14 14 17 20 21 22 22
4 1 2 2 1 3 6 2 4 3 2 0 1 3 4 5 5 4 2 6 6 7 8 9 9 8 8 7 7 7 7 9 14 20 23 22 22 21 20 19 18 17 16 15 15 15 16 17 17 18 20 21 23 25 25 25 25 23 22 21 20 19 18 16 14 13 12 12 14 16 17 15 15 15 15 15 17 19 20 20 19 18 17 17 17 17 16 14 12 13 15 17 20 21 23 24 24
4 2 1 4 3 2 3 4 3 1 3 2 3 4 6 6 5 2 3 6 6 8 10 10 9 8 7 7 7 8 8 8 11 19 23 23 23 22 21 19 19 17 15 16 16 16 17 19 19 19 20 22 24 25 25 25 24 24 23 22 20 17 16 14 14 14 13 13 16 18 18 17 18 19 17 18 21 22 22 21 20 19 17 16 16 15 13 13 14 14 17 20 21 20 22 24 25
3 3 2 3 3 3 4 4 2 3 1 3 4 5 11 12 10 6 5 6 7 10 11 8 8 8 8 7 8 9 9 10 14 19 23 23 23 23 22 20 19 18 16 17 18 17 18 20 21 21 22 23 24 24 24 24 25 26 25 23 22 20 17 15 15 15 14 16 16 17 19 18 18 19 18 19 21 22 21 21 20 18 16 15 14 13 13 16 16 16 17 20 22 21 22 25 27
6 6 4 4 3 4 5 5 5 4 2 4 7 7 11 12 11 9 6 6 8 10 9 7 7 7 8 8 9 10 11 13 15 17 20 23 24 23 22 20 20 19 18 19 20 20 21 22 22 23 23 24 25 25 24 24 23 23 23 23 23 22 20 18 15 14 15 16 16 17 17 17 18 18 18 20 20 20 21 20 19 17 15 15 15 15 17 17 16 15 18 20 23 25 26 27 27
6 5 4 3 4 4 5 4 6 2 3 6 8 8 11 11 11 11 4 5 7 10 10 10 10 9 9 10 11 12 13 12 11 16 21 23 24 24 22 21 21 21 20 21 22 23 23 23 24 24 24 24 26 26 26 26 25 24 23 23 23 21 21 20 17 16 16 16 17 19 19 20 21 20 20 20 20 20 21 19 18 18 16 16 16 17 17 16 15 17 21 23 25 28 29 27 26
6 5 2 2 3 5 7 4 5 1 3 6 5 6 11 12 12 11 3 5 9 12 12 13 13 12 10 11 13 13 10 6 7 13 19 23 25 25 24 23 24 24 23 24 24 24 24 24 25 25 25 25 25 25 26 26 26 25 23 22 23 22 21 19 18 18 18 18 19 20 21 22 22 21 20 20 20 21 20 19 19 19 18 18 18 18 17 16 17 19 24 26 27 28 28 27 25
4 3 2 2 3 4 7 5 4 1 3 5 5 4 10 12 11 11 8 8 11 12 13 13 13 12 11 12 13 12 9 7 8 11 17 23 26 26 26 26 27 26 24 26 25 25 26 26 26 26 26 26 25 25 25 24 24 23 23 23 24 23 21 19 19 20 20 20 21 21 21 21 21 21 21 21 21 21 20 21 21 20 19 19 19 20 18 18 20 22 25 27 28 27 25 23 19
2 3 3 3 4 2 4 5 4 1 1 2 5 5 8 10 9 10 12 10 10 10 12 13 12 13 14 12 11 11 12 12 10 10 12 19 23 25 28 28 29 28 25 27 28 27 27 27 27 27 27 27 26 25 25 24 24 24 24 24 24 22 21 21 22 23 23 22 22 21 21 21 21 22 22 22 23 22 22 23 23 22 22 21 20 21 20 20 22 23 25 26 27 26 21 15 10
4 5 6 5 5 6 5 4 4 3 3 3 4 6 7 7 7 10 8 4 7 10 9 12 13 13 13 10 10 12 13 13 12 11 11 16 22 26 29 29 29 29 28 30 30 29 29 29 28 28 28 28 27 27 27 26 25 25 25 24 22 21 22 24 25 25 24 24 23 22 22 22 22 22 23 23 23 24 24 23 23 23 24 22 21 21 21 20 21 23 23 23 24 24 20 15 11
4 5 9 10 8 7 5 3 5 4 5 4 3 4 6 5 5 9 6 4 7 7 7 12 14 12 10 10 12 11 10 10 11 12 13 17 22 25 26 28 29 30 30 31 31 30 29 29 29 29 29 29 28 28 28 27 27 27 26 25 23 23 24 24 27 27 25 25 24 23 22 22 23 23 24 24 24 25 24 24 24 25 25 24 22 22 22 21 20 20 20 20 19 20 19 18 16
3 5 9 11 8 5 4 2 2 1 4 3 2 1 6 7 6 8 7 7 10 8 8 12 12 10 8 9 11 9 9 9 9 11 13 16 21 23 25 29 32 32 31 30 30 29 29 29 30 30 30 30 30 30 29 29 28 27 26 25 24 26 27 25 26 27 26 25 24 23 23 23 23 24 24 24 25 25 25 25 25 25 25 24 22 22 22 21 21 20 18 17 17 17 17 19 19
3 5 5 7 7 6 5 5 3 3 3 4 2 3 4 8 7 7 6 7 11 11 13 13 12 11 10 10 10 9 10 10 9 11 12 16 21 26 29 33 35 33 30 29 30 29 30 30 31 31 31 31 31 31 30 29 27 27 26 25 26 29 30 28 27 27 26 24 24 24 24 24 24 25 25 25 26 26 26 26 26 26 25 24 22 22 22 21 21 20 18 17 17 15 14 17 16
5 3 6 6 6 5 4 5 2 1 3 5 2 3 3 8 6 3 2 4 9 13 15 15 12 12 10 10 10 9 9 9 10 11 12 16 23 28 30 30 31 31 29 30 31 30 30 31 31 32 32 32 32 31 29 28 27 28 28 28 29 29 28 28 28 27 26 25 24 25 25 25 26 26 27 27 27 27 27 27 27 26 25 23 22 21 21 20 19 19 18 17 17 15 13 13 13
4 5 7 6 6 5 5 4 3 3 2 6 6 5 3 7 5 1 1 2 8 12 12 11 10 10 9 9 9 8 7 7 9 9 11 17 22 25 25 24 27 29 29 30 31 29 30 31 32 33 33 32 32 31 29 28 29 30 30 31 32 30 28 28 28 27 27 27 27 27 27 28 29 29 30 29 28 28 28 28 26 25 24 23 22 21 21 20 19 18 17 16 16 16 15 13 12
6 6 6 6 6 5 4 3 4 2 4 8 8 9 6 6 4 4 3 4 7 8 8 8 8 8 8 7 6 6 6 6 7 7 9 14 18 20 21 23 26 28 28 30 30 30 32 33 33 34 33 33 31 30 30 29 31 32 32 33 32 29 28 29 30 30 30 30 30 30 30 31 32 32 32 31 30 30 29 27 25 24 23 22 21 21 20 20 19 18 17 17 16 16 15 13 13
5 4 5 4 4 4 4 4 4 1 6 5 4 5 7 6 6 4 5 6 6 7 7 8 8 8 8 6 5 5 5 5 6 6 7 10 13 18 22 24 26 28 29 31 31 32 33 34 34 34 33 33 32 31 31 32 33 33 33 32 30 29 29 31 33 33 33 33 34 34 34 34 34 34 34 34 33 31 29 27 25 24 23 22 21 21 20 19 19 19 18 18 17 16 15 13 13
4 4 6 4 2 3 3 3 0 3 6 3 1 2 4 8 8 7 11 13 11 9 8 8 9 9 8 6 5 5 5 5 6 6 7 8 11 16 22 24 27 30 32 33 33 33 33 34 34 34 34 34 33 33 33 34 34 34 33 31 29 30 32 34 35 35 35 36 38 39 39 39 38 38 37 35 33 31 28 27 26 24 24 22 22 21 21 20 19 19 18 17 17 16 14 13 12
5 5 6 5 2 0 3 3 2 4 5 3 2 2 3 6 5 10 17 17 13 8 7 9 9 9 9 8 7 5 5 6 6 7 8 8 11 16 21 25 27 30 33 34 34 34 33 33 34 35 35 34 34 35 35 35 34 33 32 30 30 31 33 36 37 37 38 39 40 41 41 41 41 39 38 35 33 31 28 27 26 25 24 23 23 22 21 21 20 19 18 17 16 15 14 13 12
5 4 5 5 5 4 4 4 3 4 3 3 2 2 4 3 3 8 11 11 10 7 7 8 8 8 7 7 8 6 6 6 6 7 8 9 12 18 21 24 26 29 32 33 34 34 34 34 35 35 35 35 36 36 36 35 34 32 31 31 31 33 34 36 37 38 40 41 41 41 41 41 40 39 37 35 33 31 29 28 27 25 25 24 24 23 22 21 20 18 17 16 16 15 14 13 12
2 2 4 4 6 5 2 3 5 3 2 4 3 4 5 4 6 9 7 9 9 7 7 8 8 7 4 6 8 6 6 6 6 7 8 8 13 18 20 23 25 27 30 32 34 36 36 36 36 35 36 36 37 36 36 35 34 33 32 32 33 34 35 37 38 40 42 42 42 42 42 41 39 38 37 35 33 32 30 29 28 26 26 25 24 23 22 21 20 18 17 16 16 15 14 13 12
2 3 4 4 4 6 2 2 1 3 2 4 3 5 5 3 8 10 8 11 11 8 8 9 9 6 4 8 8 6 6 6 6 7 7 8 12 16 20 22 25 27 31 33 36 37 38 37 37 36 36 37 37 37 36 35 34 34 34 34 34 35 36 38 40 43 44 43 43 42 41 40 39 38 37 35 34 32 31 30 29 28 27 26 25 24 22 21 20 18 17 16 16 15 14 13 12
6 4 6 2 2 3 2 1 3 3 3 5 2 6 5 2 6 5 1 8 12 11 11 11 9 7 7 10 9 6 7 7 7 7 6 7 11 16 20 23 26 30 32 35 36 37 37 37 38 38 37 37 38 38 37 37 36 36 35 35 35 36 38 40 42 44 45 45 43 42 41 41 39 38 37 36 35 33 32 30 29 29 28 27 25 24 22 21 20 18 17 16 15 16 14 13 11
5 4 4 4 2 1 2 2 1 0 3 5 3 4 4 6 6 3 2 7 10 11 10 8 9 9 8 10 10 6 6 6 6 6 6 7 11 17 21 23 26 29 30 32 33 34 35 35 36 37 37 38 38 38 38 37 37 37 36 36 36 37 40 42 44 46 46 46 44 43 42 41 40 39 37 37 35 34 33 32 31 30 29 27 25 24 23 21 20 18 17 17 16 15 13 12 12
3 2 2 2 2 4 3 3 3 3 3 4 4 3 4 7 7 7 10 11 11 9 6 5 9 9 8 9 8 5 5 6 6 7 7 7 12 18 22 24 26 28 29 30 31 33 34 34 34 36 37 37 38 39 39 38 38 38 37 37 38 39 42 44 45 47 47 46 45 44 43 42 41 39 38 37 36 35 34 33 32 30 29 28 26 25 23 22 20 19 18 17 16 15 13 12 12
4 4 4 3 1 2 1 1 3 4 3 2 3 6 7 5 5 10 13 12 11 9 6 7 9 8 8 9 7 5 5 7 7 7 7 8 11 17 21 24 25 27 28 29 31 33 34 35 35 35 36 37 38 39 39 39 39 38 38 39 40 41 43 44 45 46 46 45 45 44 43 42 41 40 39 38 37 35 34 33 32 31 29 28 27 25 24 22 21 19 18 17 16 15 14 12 12
7 7 8 9 6 4 3 3 2 2 2 4 3 8 10 4 5 8 9 9 9 8 7 7 7 8 9 8 6 6 7 7 8 8 7 7 11 16 20 22 24 25 27 29 31 33 34 35 36 36 36 37 38 39 39 39 39 39 39 39 40 42 43 44 44 45 45 45 45 44 43 43 42 41 39 38 37 36 35 34 32 31 29 28 27 26 24 23 21 20 20 19 17 16 15 13 12
Wind_Direction
342 331 316 312 317 312 23 58 69 353 67 86 12 81 198 204 196 176 53 327 48 346 297 54 49 70 93 121 142 140 128 156 163 141 201 231 78 131 176 183 182 170 166 162 156 149 146 144 139 135 130 120 115 112 107 107 106 104 102 101 101 98 96 94 96 97 95 96 96 92 88 88 86 82 80 78 76 69 63 59 57 53 50 47 46 49 53 56 59 60 60 58 60 69 81 83 81
340 329 322 305 333 69 213 67 89 349 54 82 321 147 208 339 128 167 175 174 141 178 130 87 74 64 72 103 110 90 57 317 191 184 226 149 91 126 161 191 192 176 170 166 159 154 152 150 145 142 135 125 120 115 111 111 110 107 105 105 105 103 101 96 98 98 97 98 98 95 93 92 89 86 83 81 78 71 66 61 58 54 50 48 47 48 54 57 59 61 61 61 63 71 82 84 84
336 322 329 264 332 45 69 49 93 74 75 112 262 242 274 65 180 194 201 162 153 161 130 90 81 60 61 70 47 72 40 319 250 240 247 115 97 122 126 153 167 172 174 168 163 157 155 154 150 147 139 130 125 120 118 117 117 114 112 111 110 109 105 100 102 100 97 97 96 97 98 97 93 88 85 84 79 71 68 63 60 56 52 51 49 50 56 59 60 63 63 63 67 74 82 85 87
323 317 330 207 107 28 58 46 118 114 109 163 210 257 258 178 191 211 229 196 180 170 145 82 70 2 93 93 31 96 117 297 299 278 250 107 114 149 148 147 159 169 173 169 167 159 157 160 155 149 143 135 131 126 123 124 124 122 120 117 115 114 109 107 110 102 97 95 95 98 100 99 95 90 89 87 78 71 68 64 61 58 56 55 52 52 57 61 61 63 65 66 69 77 82 83 85
313 320 343 116 106 39 90 74 103 101 161 176 150 253 246 196 199 213 250 251 227 210 189 108 96 279 75 98 169 117 239 274 306 286 310 129 140 164 166 159 165 170 173 171 167 161 162 163 155 152 148 141 137 133 129 129 131 130 128 124 121 119 113 114 115 105 99 95 92 97 100 99 96 94 93 87 76 69 67 64 61 59 58 57 55 55 58 63 64 64 67 68 71 77 80 79 79
313 358 28 69 90 97 96 83 97 92 200 168 145 236 230 198 205 198 244 326 125 184 182 108 136 158 62 348 156 131 247 284 319 301 272 157 155 173 173 169 173 173 174 172 168 164 165 164 156 157 152 145 142 138 135 134 137 137 136 132 128 125 119 121 119 110 104 99 94 96 101 101 99 98 95 87 76 70 69 67 61 59 58 58 58 57 60 65 67 67 68 71 76 77 76 79 82
8 185 26 60 46 42 89 107 136 147 183 171 175 194 199 208 205 165 155 27 58 19 65 108 139 114 77 301 89 349 331 286 291 321 226 174 164 174 172 175 179 177 176 172 170 166 165 165 159 162 157 150 149 144 141 139 141 141 141 138 133 130 125 124 121 115 108 105 101 99 104 104 103 103 99 89 81 79 77 71 63 60 58 57 60 59 62 68 70 69 70 73 79 79 80 89 93
63 113 17 78 31 25 89 99 152 177 152 214 226 184 192 206 185 144 145 142 128 359 69 163 105 89 57 35 133 284 16 59 155 98 214 178 166 173 172 176 182 179 177 174 172 170 168 166 162 164 163 160 157 152 147 145 146 143 143 141 137 135 130 128 125 121 114 110 109 108 109 109 110 109 104 94 87 85 82 73 65 61 58 58 61 62 65 70 73 73 73 75 80 82 91 99 99
51 46 63 79 71 46 65 42 115 210 264 250 233 215 216 190 165 131 117 72 167 119 140 234 327 91 178 73 222 277 4 114 124 125 194 172 166 171 173 176 181 176 174 177 176 175 172 168 168 169 169 167 164 161 155 152 152 149 147 145 143 142 138 136 134 130 124 121 117 114 114 115 116 115 112 103 95 89 84 75 67 62 58 61 63 65 69 73 77 77 76 78 80 85 93 97 96
39 31 122 76 80 68 57 31 258 235 263 252 223 231 216 169 154 121 124 124 123 88 261 232 73 103 143 126 236 288 324 154 138 132 135 162 166 170 176 178 180 172 173 179 178 180 176 172 173 175 175 172 172 170 164 161 160 157 155 152 151 150 150 150 148 142 134 131 126 120 119 119 120 121 120 109 99 91 85 76 69 64 59 63 65 67 72 76 79 80 80 81 83 86 89 91 92
35 359 99 76 75 101 156 185 253 250 275 308 282 248 210 164 135 81 79 113 101 105 195 105 89 135 110 119 245 232 195 167 152 137 118 152 164 171 175 180 182 175 174 178 180 183 180 177 178 182 181 177 177 176 172 169 167 165 161 158 158 158 161 162 157 151 142 137 133 127 123 123 125 124 123 113 103 95 87 78 71 64 60 65 67 71 76 79 82 83 84 85 87 88 89 90 90
87 341 64 85 120 158 183 163 209 251 303 322 209 255 189 148 136 133 140 123 97 113 187 223 156 142 89 310 264 242 211 171 165 144 129 147 162 172 175 180 184 180 177 177 182 183 182 183 181 184 185 182 182 182 181 175 172 171 168 166 165 165 166 166 160 155 149 144 141 135 131 127 128 127 123 116 108 99 91 82 73 65 62 66 70 75 79 82 83 84 87 88 90 90 90 90 89
118 144 84 89 145 139 145 143 204 282 317 245 196 259 133 149 170 168 153 113 94 126 265 269 154 115 99 244 282 276 224 181 166 152 149 150 157 168 174 178 181 180 180 180 182 184 186 191 192 192 192 187 187 190 187 181 180 176 175 172 167 169 168 170 166 161 159 152 148 140 136 132 129 128 125 120 111 101 94 85 77 68 67 71 74 77 81 83 84 84 86 88 90 91 90 89 86
128 154 102 103 94 112 137 135 210 152 229 246 227 272 126 171 183 165 137 105 248 177 302 313 137 123 116 222 295 257 213 184 165 161 161 157 155 160 168 172 174 175 175 175 177 178 177 190 204 202 200 192 190 194 189 186 188 182 180 177 171 173 174 177 176 171 170 161 152 142 139 136 132 130 128 127 119 107 100 89 80 74 74 78 78 78 81 82 83 83 84 86 88 89 88 87 84
123 136 83 105 83 81 154 162 163 151 208 227 192 188 90 59 144 151 151 135 227 251 349 5 108 176 183 168 239 223 189 177 166 167 166 165 161 157 164 167 170 172 173 175 179 182 178 194 200 185 200 204 199 198 191 190 196 190 183 185 180 177 178 180 184 179 171 166 157 150 147 139 134 135 135 136 128 118 110 96 86 80 79 84 82 78 78 78 81 83 84 85 85 87 87 86 83
107 110 68 93 120 143 179 168 122 133 225 216 215 149 93 315 135 143 237 141 144 331 10 344 29 334 189 187 258 188 167 167 165 169 167 167 165 162 165 167 172 174 178 182 186 191 186 199 188 169 191 201 200 200 190 190 196 200 188 189 188 180 182 179 183 182 172 172 167 161 157 147 142 142 144 144 138 130 121 109 97 86 83 88 85 78 76 74 77 80 82 82 82 83 85 85 83
60 77 66 88 151 184 186 171 163 168 223 228 261 217 122 233 304 141 285 71 109 22 18 275 313 352 195 248 281 149 155 163 164 164 162 162 166 165 165 169 174 175 179 184 187 190 185 195 186 174 187 181 184 190 191 190 185 199 191 189 194 187 187 179 178 182 179 179 173 169 165 159 156 154 154 149 148 146 135 125 111 99 93 95 91 82 77 73 73 74 76 76 76 79 81 83 83
55 80 92 122 173 194 180 179 194 173 184 199 217 190 140 164 227 171 64 40 61 52 16 332 333 347 244 150 127 142 154 163 164 162 157 158 164 166 169 173 175 177 179 182 186 188 190 200 198 194 203 186 186 190 192 193 183 192 191 188 195 193 191 184 181 183 186 185 177 172 169 167 166 166 162 155 158 155 145 139 126 114 107 106 101 89 82 76 73 71 70 70 72 76 78 79 81
83 109 95 176 200 201 189 180 191 179 174 181 195 179 154 175 169 140 170 323 28 99 341 345 350 326 295 138 140 149 158 163 168 167 161 162 168 169 171 175 179 183 184 186 189 193 195 202 202 199 202 190 191 195 194 192 187 191 190 187 194 192 191 189 188 189 192 190 183 176 172 171 169 168 162 159 163 160 153 147 140 129 120 120 111 96 87 81 77 75 72 72 73 75 74 75 77
130 107 84 227 213 222 220 186 201 217 173 158 183 180 164 207 161 142 179 178 236 198 212 248 259 233 201 186 160 157 162 164 171 172 170 172 174 175 176 178 183 185 188 192 194 198 200 201 201 196 195 187 187 197 197 194 188 189 191 191 196 193 190 193 195 198 200 194 191 184 178 177 172 167 162 164 168 164 160 156 158 150 135 133 121 102 93 87 84 83 81 80 78 77 75 74 74
107 102 148 217 175 185 225 194 217 223 166 156 153 125 165 237 170 157 147 141 270 246 217 195 205 203 189 205 186 168 167 169 176 178 177 179 181 183 184 184 186 188 191 196 197 202 203 205 207 203 203 196 189 195 197 197 190 187 194 194 197 198 193 195 197 202 206 200 199 188 178 177 175 172 169 170 172 169 164 165 175 163 148 145 130 113 103 98 91 92 93 89 83 80 77 74 71
73 57 188 196 138 113 225 195 216 160 124 118 123 142 186 186 133 161 152 166 232 233 228 213 203 186 178 186 180 173 171 174 182 184 184 185 188 189 190 190 191 194 197 201 203 205 206 209 211 212 212 202 192 193 196 196 190 188 195 196 201 202 196 197 200 202 206 196 189 185 180 181 179 179 180 178 173 172 167 171 181 164 155 152 140 131 121 113 105 106 104 95 88 84 79 75 72
97 356 317 208 172 208 226 167 208 144 118 133 158 180 147 115 278 192 172 204 225 240 263 233 213 182 171 164 165 171 176 183 188 191 191 190 192 193 193 194 197 202 205 211 212 212 214 213 213 214 215 207 195 193 198 196 195 195 194 198 204 199 194 197 200 200 200 195 191 191 191 193 186 187 191 184 173 171 172 173 178 163 159 158 153 157 145 129 123 120 113 101 95 89 83 79 76
91 125 317 228 183 222 239 103 167 135 134 187 176 122 126 170 217 73 212 236 253 303 307 205 172 158 157 154 165 177 180 187 192 195 196 196 199 198 198 199 203 209 214 221 223 222 222 220 218 214 211 208 199 195 200 197 201 200 190 199 204 197 196 200 202 200 199 203 202 198 201 204 197 195 191 183 174 175 181 175 170 163 163 165 164 170 162 144 138 130 119 107 100 95 90 85 81
69 139 223 138 168 260 335 45 64 123 133 174 112 125 223 200 189 308 246 247 280 342 49 115 132 137 153 163 172 176 178 187 191 193 196 199 201 199 200 204 207 213 220 226 232 233 229 224 222 216 210 205 199 197 200 196 200 199 191 200 201 194 194 201 206 196 197 209 207 201 208 214 208 197 185 182 182 183 188 181 172 168 168 171 170 177 179 161 150 137 123 112 105 100 97 93 86
162 144 184 145 6 321 3 40 299 12 66 104 118 251 283 265 227 274 257 234 208 72 83 111 132 143 166 173 179 178 178 187 187 188 192 195 196 198 201 205 211 217 224 230 235 236 232 225 220 216 209 202 198 198 199 196 198 197 192 198 201 197 192 195 201 189 198 214 201 199 206 212 212 204 191 186 188 185 187 186 179 179 180 182 179 185 189 172 158 142 129 118 111 106 102 100 93
158 130 145 112 359 311 117 199 267 336 314 184 175 241 284 335 300 254 273 208 152 104 99 136 147 164 180 179 191 187 189 193 189 187 187 191 195 201 203 206 214 219 226 232 234 233 226 219 213 207 202 197 195 196 197 195 196 194 191 193 192 191 182 180 187 181 194 199 184 192 204 203 207 207 199 189 189 187 184 185 185 191 195 196 193 189 180 172 163 148 136 127 118 111 107 105 101
101 111 143 6 344 301 159 203 249 146 264 192 166 228 290 357 273 233 252 173 159 129 140 171 167 185 192 190 205 200 206 202 194 192 192 197 201 204 207 209 214 218 225 231 231 224 213 212 205 196 193 190 191 193 194 192 193 193 189 187 182 182 179 181 188 180 187 189 179 202 208 199 199 203 201 188 186 188 187 189 191 196 199 197 194 184 173 170 166 152 143 134 124 117 114 112 109
75 74 117 313 354 345 213 229 228 170 196 185 147 282 289 242 225 249 264 161 129 128 163 191 195 208 211 213 221 216 220 209 202 207 206 206 208 209 211 214 217 221 226 228 228 213 198 203 198 189 185 184 188 191 190 189 191 192 187 183 183 191 195 194 195 187 188 196 206 217 203 192 193 196 196 191 191 194 194 193 193 194 195 193 185 176 168 164 159 149 144 138 130 125 121 118 116
7 46 63 326 360 346 276 335 196 169 182 178 146 267 272 247 244 262 223 155 125 144 195 210 213 223 224 222 226 229 227 216 213 216 215 214 215 215 215 219 220 224 228 219 217 203 187 195 193 185 180 181 187 188 187 187 186 189 189 187 191 197 195 189 189 188 192 205 209 202 188 179 180 182 185 187 187 186 187 188 190 191 187 183 174 167 162 157 151 145 142 138 134 130 124 124 122
12 4 43 17 6 280 286 315 154 160 189 157 133 226 267 267 268 266 203 172 155 185 214 215 221 227 224 225 224 231 229 221 221 220 220 219 218 218 218 220 219 222 223 211 207 196 186 193 190 185 181 182 186 184 184 184 182 188 190 189 193 196 194 189 189 197 200 207 209 194 185 180 177 178 180 181 180 180 187 186 183 178 170 167 163 160 157 150 145 142 142 140 138 133 128 127 124
30 340 314 348 171 269 302 281 166 159 215 76 128 219 271 269 276 286 198 183 179 203 221 219 224 225 222 229 223 230 236 228 228 225 223 222 219 219 218 219 218 218 217 204 199 193 189 191 189 186 185 185 185 182 181 180 178 184 182 176 179 184 184 180 182 193 196 209 218 198 189 189 186 185 183 183 182 184 185 176 166 161 160 161 158 156 151 144 142 144 147 153 147 136 131 128 123
359 76 255 282 193 283 316 300 221 187 128 40 181 223 276 276 291 331 162 185 196 219 237 229 227 228 222 227 227 231 238 235 233 228 224 220 218 217 218 219 217 218 216 202 196 194 190 189 189 188 186 188 186 180 178 174 171 178 179 171 172 175 177 177 183 192 198 210 209 194 187 188 190 187 184 186 183 179 174 165 158 157 161 161 156 152 147 144 152 155 153 154 147 138 134 129 123
315 18 238 245 212 235 299 306 279 124 119 211 220 230 252 263 286 316 186 189 195 223 240 235 228 229 227 228 233 233 230 232 233 226 221 217 215 214 217 218 217 218 214 202 197 197 194 191 189 190 188 188 186 179 178 179 178 183 182 177 179 180 180 183 187 189 192 195 194 193 187 184 187 181 178 184 178 170 167 162 158 157 160 160 155 152 149 152 158 157 152 148 144 141 139 134 127
199 196 200 249 238 219 254 286 247 137 107 224 207 243 256 263 273 260 217 188 196 227 238 243 239 229 229 229 230 233 229 232 231 223 217 213 211 211 213 215 214 215 210 202 198 197 198 194 188 193 193 187 184 180 180 183 180 179 177 173 174 175 175 178 179 180 181 184 189 190 181 176 181 176 175 181 174 167 162 159 158 158 164 167 164 162 159 157 154 152 151 147 144 143 144 138 131
160 179 156 175 212 244 239 254 257 187 153 235 219 234 253 260 267 261 231 187 207 240 248 254 250 232 227 227 230 230 227 235 231 219 214 212 210 209 210 212 210 208 206 203 200 198 200 197 190 191 193 189 186 181 179 183 178 174 173 171 169 169 172 176 181 187 185 187 193 190 184 183 184 181 180 180 176 170 164 161 162 163 170 174 171 167 161 159 158 156 152 149 145 139 138 137 133
115 130 132 173 193 267 261 253 290 240 159 248 233 233 257 258 263 265 237 177 220 246 251 250 244 235 228 225 229 227 228 236 224 212 212 210 209 209 209 209 205 203 206 205 202 201 199 198 195 190 189 191 191 183 178 182 181 175 170 169 168 166 169 173 178 186 186 187 191 190 192 189 184 182 183 180 176 171 164 164 165 163 168 172 170 165 161 161 163 161 152 147 146 139 135 134 134
91 122 163 261 207 251 260 247 305 323 169 264 263 247 262 259 261 267 222 176 227 234 236 244 241 236 231 227 231 229 228 229 199 203 207 205 206 206 206 206 203 201 204 205 204 203 199 198 199 193 189 188 188 186 180 177 178 177 175 173 171 166 166 170 175 180 181 183 184 183 184 182 179 178 180 179 175 171 166 164 163 163 168 171 165 159 157 157 156 160 155 146 144 141 136 136 137
90 110 149 261 249 268 277 278 322 356 175 265 297 276 267 263 261 264 239 217 235 232 228 240 240 237 234 227 231 229 223 214 199 201 199 200 202 201 203 205 204 203 203 204 205 204 200 198 198 195 193 188 185 186 183 179 178 180 181 178 172 167 165 171 177 176 178 179 178 178 178 177 177 176 176 178 175 170 167 164 162 164 165 163 156 147 146 148 148 155 158 151 145 141 138 143 146
160 151 158 239 254 259 276 290 326 350 188 273 308 300 275 269 265 260 248 234 246 246 236 243 242 240 239 231 226 222 219 214 207 203 196 197 199 198 201 204 204 203 203 205 204 203 201 198 196 194 194 191 187 188 189 186 182 179 179 176 173 171 168 171 172 169 172 174 173 175 177 176 177 176 174 175 172 168 166 162 160 159 156 153 147 139 138 144 149 154 158 157 152 144 140 146 157
239 191 185 218 233 218 231 284 330 342 348 3 339 310 281 270 263 258 264 273 268 256 245 252 250 243 246 246 236 222 218 215 204 201 195 193 197 199 200 201 201 201 202 205 203 201 200 198 196 193 192 191 189 190 192 191 184 178 173 168 166 164 162 165 165 162 166 170 170 172 175 175 176 175 172 172 170 165 163 160 157 154 149 145 141 134 133 140 149 156 157 159 158 153 147 139 138
273 224 200 212 220 224 237 333 11 1 329 348 14 306 281 291 272 258 282 318 278 258 239 250 253 249 243 246 244 229 220 217 205 199 195 194 198 199 199 199 199 200 203 203 202 201 199 198 196 192 191 190 189 190 193 192 186 180 174 168 163 158 156 162 164 163 165 168 169 171 173 174 175 174 172 171 170 166 163 159 155 152 146 143 140 134 131 134 142 150 157 160 159 157 153 137 128
271 246 206 208 203 202 207 150 61 298 262 294 59 207 273 295 270 250 261 271 268 267 253 251 256 256 240 236 243 233 219 214 203 197 193 195 197 194 197 200 199 201 201 200 201 200 199 198 196 192 191 192 191 189 189 188 184 182 182 180 178 171 166 166 167 166 166 170 171 171 173 175 175 175 174 172 171 168 163 159 155 151 146 143 141 137 132 131 133 136 144 149 148 152 154 141 129
239 253 179 176 177 187 191 159 177 234 261 312 41 129 266 283 262 249 252 261 274 275 265 261 259 256 250 243 241 232 219 207 197 198 194 196 197 195 198 200 200 200 197 196 199 200 198 198 197 193 192 194 193 190 188 188 188 188 188 187 184 179 175 172 170 167 167 172 174 174 176 177 177 176 174 172 169 166 161 156 153 150 146 143 141 139 136 134 132 130 132 134 135 141 146 139 132
247 220 126 136 150 158 139 124 159 351 4 302 286 127 253 271 262 288 311 255 268 267 261 262 260 257 257 252 245 236 225 208 198 200 198 197 199 200 201 199 198 197 194 195 197 198 198 197 196 194 193 193 194 195 193 192 195 194 191 188 181 177 177 175 173 171 171 175 178 177 177 176 176 173 171 168 165 162 157 153 151 149 146 144 143 140 137 135 134 133 132 133 132 131 131 130 127
215 136 96 78 80 82 81 99 107 52 356 255 223 163 235 270 242 238 9 231 249 259 260 262 264 263 259 255 252 240 225 213 205 204 200 201 202 202 200 196 195 194 193 195 196 195 196 195 193 193 195 195 196 198 196 194 195 192 189 188 182 178 178 175 174 174 174 177 177 175 175 174 172 170 167 165 162 158 154 151 151 149 146 145 144 141 137 135 134 133 134 135 134 130 127 126 123
142 111 68 48 37 38 47 54 74 66 276 254 218 184 197 273 258 197 209 214 223 243 264 274 278 277 264 257 257 240 220 211 206 203 196 196 199 197 194 193 193 192 192 194 195 194 194 194 192 192 194 196 197 198 197 197 197 192 188 189 187 185 184 180 178 176 174 175 174 172 171 170 169 167 165 162 159 155 153 152 152 150 148 147 145 141 139 139 138 138 138 137 134 131 129 126 123
114 95 81 67 354 6 20 360 45 159 252 263 247 179 176 236 259 232 251 262 240 228 242 263 273 278 272 270 268 245 226 210 198 193 184 178 183 187 189 191 190 190 191 192 194 194 193 194 192 191 192 194 197 201 200 199 197 193 191 192 194 197 196 191 185 180 176 175 172 169 167 166 164 164 162 159 157 156 155 154 154 152 151 150 147 145 144 144 144 144 142 139 136 131 129 128 127
99 105 109 101 331 352 344 308 61 228 253 259 244 131 185 239 254 262 266 266 254 230 222 237 253 268 277 282 272 245 220 209 197 190 185 180 181 185 187 188 188 189 191 192 193 193 192 193 193 192 192 194 198 200 199 198 196 195 196 199 203 204 201 196 190 184 179 175 171 168 166 164 163 162 161 160 158 158 158 158 157 156 154 153 151 150 149 150 150 148 145 142 138 134 133 135 136
159 148 140 139 149 190 266 269 272 262 267 263 205 179 248 267 265 249 247 251 254 245 232 234 240 254 270 285 284 266 227 209 203 195 191 192 191 190 189 189 189 190 191 191 192 192 192 192 194 195 195 196 198 198 198 198 198 199 201 204 206 203 198 195 191 187 181 175 172 170 167 166 165 163 162 161 160 160 161 161 160 159 158 157 156 156 155 154 153 151 148 145 141 140 142 143 143
185 155 138 158 162 168 214 219 227 253 282 290 248 192 202 212 256 250 244 260 274 267 257 254 252 250 260 280 283 273 242 216 207 203 201 201 195 191 191 191 191 192 191 191 191 191 192 193 194 195 196 197 198 198 199 200 201 202 204 205 204 201 198 195 191 187 181 177 174 172 171 170 168 166 164 163 163 164 164 164 164 163 162 162 161 161 160 158 157 155 153 150 147 147 150 150 148
227 115 118 185 185 165 194 203 181 189 306 293 234 221 217 209 271 274 261 273 277 272 278 273 265 264 275 276 264 252 241 222 209 210 207 203 196 192 192 192 193 193 192 191 192 191 192 194 195 197 199 199 199 199 200 201 202 203 205 204 202 200 197 194 189 185 181 178 176 175 174 172 170 168 166 166 166 167 168 167 167 167 166 166 166 165 163 161 162 162 158 156 154 153 156 156 153
159 139 176 207 173 144 155 276 61 79 275 265 202 239 284 312 282 272 256 263 270 277 278 265 261 274 293 276 258 235 231 221 211 213 207 196 193 193 194 193 193 193 193 194 194 194 194 194 195 197 199 200 201 201 202 202 203 203 203 203 201 199 197 194 189 184 181 180 179 178 176 174 172 171 170 170 169 170 171 170 170 170 170 170 169 168 167 166 166 166 163 161 159 157 160 160 157
129 182 202 159 77 100 117 255 354 40 255 271 227 235 271 281 270 297 278 251 262 265 261 263 275 280 268 268 261 231 218 218 214 210 202 193 191 193 195 196 196 196 196 196 196 196 196 196 196 197 198 199 201 202 202 204 203 202 201 201 201 201 198 194 189 184 182 181 181 180 178 176 175 174 174 173 173 173 173 174 174 174 173 173 172 171 170 170 170 168 166 165 162 161 163 163 161
131 183 182 119 127 201 117 163 231 198 251 284 278 246 243 208 223 280 222 223 241 251 253 262 270 264 255 265 265 237 207 212 215 205 199 196 193 194 194 197 199 199 199 199 197 197 196 197 198 199 201 202 202 203 203 203 203 202 202 202 202 201 198 193 188 185 184 184 183 182 180 179 178 178 177 176 176 176 176 177 177 177 176 175 174 174 174 174 172 170 168 167 164 164 167 166 165
65 104 133 105 149 171 159 165 168 170 230 280 300 291 245 215 200 200 213 218 215 221 230 239 250 250 246 257 262 239 205 208 211 204 205 200 194 196 196 197 199 199 201 200 198 198 197 198 199 199 203 204 204 203 202 201 202 202 203 202 202 201 197 192 189 187 186 186 185 184 183 182 181 181 181 180 180 180 179 179 179 179 178 177 177 176 177 177 175 173 172 169 166 166 171 171 168
151 157 170 182 125 107 164 198 134 141 175 225 288 288 259 229 192 194 208 217 211 203 201 222 244 248 245 252 252 230 212 213 210 204 205 200 194 196 197 199 200 199 200 200 199 199 199 200 200 199 201 202 202 202 201 201 202 202 202 202 201 199 196 192 190 189 189 188 187 186 186 185 184 184 184 183 183 183 182 182 182 182 181 180 180 179 180 179 177 175 174 172 171 170 173 175 173
180 185 191 187 169 138 166 239 213 141 177 184 206 275 267 230 185 198 205 210 210 207 204 218 245 248 249 258 242 214 210 208 208 206 203 194 190 192 194 197 198 197 199 199 200 201 201 201 201 200 201 201 201 200 200 201 201 201 203 203 201 199 196 193 192 191 191 191 190 189 189 188 187 186 186 186 186 185 185 185 184 184 184 184 184 183 182 181 180 179 177 176 178 176 175 178 178
Height
802 802 801 801 801 801 803 804 822 837 842 855 857 854 847 842 845 842 840 840 840 841 838 837 835 835 835 836 839 843 847 846 846 850 849 844 842 842 844 845 847 847 848 849 849 850 850 852 852 853 853 853 853 852 852 852 853 853 853 853 853 853 853 853 853 854 854 854 854 854 854 854 855 855 855 856 856 856 855 855 854 853 853 853 852 851 851 850 850 850 850 850 850 850 851 851 852
802 802 801 802 801 802 810 811 831 848 848 859 859 854 847 841 844 840 840 840 840 840 838 837 837 838 839 839 840 842 844 845 845 845 843 842 841 842 843 844 846 847 848 849 850 851 851 852 853 853 854 853 854 853 853 853 854 853 854 854 854 854 854 854 854 855 855 855 855 855 855 855 856 856 857 857 857 857 856 856 855 855 855 854 853 852 852 851 851 851 851 851 851 851 852 853 853
802 803 801 802 802 803 812 815 835 854 851 858 856 850 846 842 842 839 839 838 837 838 838 837 838 841 842 841 840 843 844 844 843 843 842 841 841 842 843 844 845 847 848 849 850 851 851 853 853 854 854 854 854 854 854 854 854 854 855 855 855 855 855 855 856 856 856 856 856 856 856 857 857 858 858 858 858 858 858 857 857 856 856 856 855 854 853 853 852 852 852 852 852 853 853 854 855
802 802 802 801 805 808 816 826 841 851 853 861 856 846 844 842 840 838 838 837 838 837 837 837 839 842 841 842 843 845 846 843 842 842 842 841 842 842 843 844 845 847 848 849 850 851 852 852 853 853 854 854 854 855 855 855 855 855 856 856 856 856 856 856 857 857 857 857 857 857 857 858 859 859 859 859 859 859 859 858 858 858 858 857 856 855 855 854 854 853 853 853 854 854 855 855 856
802 802 802 800 809 814 823 840 849 847 850 857 852 844 841 840 839 837 837 837 838 837 836 836 840 843 842 845 845 845 846 844 842 842 842 841 842 842 843 844 845 847 848 850 850 851 852 852 853 853 854 854 855 855 855 856 856 856 856 857 857 857 857 857 857 858 858 858 858 858 858 859 860 860 860 860 860 860 860 860 860 859 859 858 858 857 856 856 855 855 855 855 855 855 856 857 857
802 802 801 800 810 816 825 841 847 845 844 846 843 840 838 838 839 837 836 836 836 837 836 835 838 841 844 847 846 846 845 844 843 842 842 842 842 842 843 844 845 847 848 849 850 851 852 852 853 853 854 854 855 855 856 856 856 857 857 857 857 858 858 858 858 858 858 859 859 859 860 860 861 861 861 861 861 861 861 861 861 861 860 860 859 858 858 857 857 857 857 856 856 857 858 858 859
801 803 805 807 815 821 832 842 845 846 843 843 838 835 836 836 839 837 837 837 836 836 836 837 837 838 845 848 846 846 844 844 843 842 842 842 843 843 844 844 845 846 848 849 850 851 852 853 853 854 854 855 855 856 856 857 857 857 857 858 858 858 858 859 859 859 859 859 860 860 861 861 862 862 862 862 862 862 862 862 862 862 861 861 860 859 859 859 859 859 859 858 858 858 859 859 860
800 805 811 815 826 834 842 846 847 848 843 844 838 834 835 835 838 836 836 838 837 837 836 838 837 838 845 848 847 846 844 844 843 843 842 842 843 843 844 845 845 846 847 849 850 851 852 853 853 854 854 855 855 856 857 857 857 858 858 858 859 859 859 860 860 860 860 860 861 862 862 862 863 863 863 863 863 863 863 863 863 863 862 862 861 861 861 860 860 860 860 860 859 859 860 860 861
800 806 814 821 834 842 847 850 850 848 844 842 837 835 835 836 838 836 835 837 837 838 837 838 837 839 844 847 848 846 844 844 844 843 843 842 843 843 844 845 846 846 847 849 850 851 852 853 853 854 854 855 855 856 857 857 858 858 858 859 859 860 860 861 861 861 861 862 862 862 863 863 863 864 864 864 864 864 864 864 864 864 864 863 863 862 862 861 861 861 861 861 861 861 861 861 862
804 809 818 828 841 847 851 853 851 846 842 839 837 835 834 836 837 836 836 837 838 838 838 839 838 840 843 847 848 845 844 845 844 844 843 843 843 843 845 845 846 847 847 849 850 851 852 853 853 854 855 855 856 856 857 857 858 858 858 859 859 860 860 861 861 862 862 863 863 863 864 864 864 865 865 865 865 865 865 865 865 865 865 865 864 864 863 863 863 862 862 862 862 862 862 863 863
810 815 819 831 845 850 851 851 849 845 841 839 837 834 834 836 835 836 837 836 839 838 838 838 839 843 844 847 847 844 844 845 844 844 844 843 844 844 845 846 847 847 848 849 850 851 852 853 853 854 855 855 856 857 857 858 858 859 859 860 860 861 861 862 862 863 863 864 864 864 865 865 865 866 866 866 866 867 867 867 867 867 867 866 866 865 865 864 864 864 864 864 864 864 864 864 864
814 822 822 833 845 847 850 850 848 846 842 840 837 833 834 836 834 836 837 836 838 837 837 837 837 840 844 847 845 843 844 844 844 844 844 844 845 845 845 846 847 848 849 850 851 851 852 853 854 854 855 855 856 857 857 858 858 859 860 860 861 862 862 863 863 864 864 865 865 865 866 866 867 867 867 868 868 868 868 868 868 869 869 868 868 867 867 866 866 866 866 866 865 865 865 865 865
815 825 823 836 851 850 852 853 851 850 845 840 836 834 834 834 833 834 836 837 838 837 836 835 836 837 842 847 844 844 844 843 844 844 845 845 845 845 846 847 848 849 850 850 851 852 853 853 854 855 855 856 856 857 858 858 859 860 860 861 862 863 863 863 864 864 865 866 866 866 867 867 868 868 868 869 869 869 869 870 870 870 870 870 869 869 868 868 868 868 868 867 867 867 867 867 867
815 822 822 842 860 855 853 852 852 852 845 838 835 834 834 832 832 833 834 837 838 837 835 835 836 836 841 845 843 843 842 842 844 844 845 845 846 846 846 847 848 849 850 850 851 852 853 853 854 855 856 856 856 857 858 858 859 860 861 861 862 863 864 864 865 865 866 866 867 867 868 868 868 869 869 870 870 870 871 871 871 872 872 871 871 871 870 870 870 869 869 869 869 869 869 868 868
815 822 826 844 856 852 853 851 851 850 842 836 834 833 833 833 834 834 834 835 838 837 836 835 836 837 839 840 838 838 839 841 843 843 845 845 846 846 846 847 848 849 849 850 851 851 852 853 853 854 855 856 856 857 858 859 859 860 861 861 862 863 863 864 865 865 866 867 867 867 868 868 869 870 870 870 871 871 871 872 872 873 873 873 872 872 872 872 871 871 871 870 870 870 870 870 870
816 820 827 842 852 850 851 851 853 851 840 835 834 833 833 834 834 834 834 834 836 837 837 836 837 837 838 836 834 834 837 840 842 843 844 845 846 846 847 847 847 848 849 850 850 851 852 853 853 853 855 856 856 857 858 859 859 860 861 861 862 863 863 864 865 865 866 867 867 868 868 869 869 870 870 871 871 872 872 872 873 873 873 873 873 873 873 873 873 872 872 872 871 871 871 871 871
815 819 829 840 851 848 845 848 850 844 835 834 835 833 833 835 834 833 834 833 835 839 839 839 839 839 838 837 835 834 837 840 841 842 843 844 845 846 847 847 848 848 849 849 850 851 852 852 853 853 854 854 855 857 858 858 859 860 860 861 862 862 863 863 864 865 866 867 867 868 868 869 869 870 870 871 871 872 872 873 873 874 874 874 874 874 874 874 874 874 873 873 873 872 872 872 872
817 827 834 839 848 843 837 840 840 835 831 832 833 832 833 834 834 833 834 835 838 840 840 841 840 839 839 838 837 837 837 839 840 841 842 843 844 845 846 846 847 847 848 849 849 850 851 852 852 853 853 853 854 856 857 858 859 860 860 861 862 862 863 863 864 865 866 866 867 868 868 869 869 870 870 870 871 872 872 873 874 874 874 875 875 875 875 875 875 875 875 874 874 874 874 873 873
824 834 836 838 842 836 832 833 834 833 830 830 832 833 833 832 832 832 834 838 840 839 839 842 841 839 839 838 838 838 838 839 840 841 841 842 843 843 844 845 846 846 847 848 849 849 850 851 852 852 853 854 854 855 856 857 858 859 860 860 861 862 863 863 864 865 866 866 867 867 868 868 869 869 870 871 871 872 872 873 874 875 875 875 875 875 876 876 876 876 876 876 875 875 875 875 875
827 832 833 836 835 832 832 832 831 830 829 830 832 834 834 832 832 832 834 838 840 837 836 838 838 838 838 838 838 839 839 839 840 840 841 841 842 842 843 843 844 845 846 847 848 848 849 850 851 852 853 853 854 855 856 857 858 858 859 860 861 861 862 863 864 865 865 866 866 867 868 868 869 869 870 871 871 872 873 873 874 875 875 876 876 876 876 877 877 877 877 877 877 876 876 876 876
827 830 831 833 833 832 831 830 831 830 831 831 831 835 834 833 833 833 835 838 839 835 832 831 831 832 836 838 838 838 838 839 840 840 840 841 841 842 842 842 843 844 845 846 846 847 848 849 850 851 852 853 854 855 855 856 857 858 859 860 860 861 862 862 863 864 865 865 866 867 868 868 868 869 870 870 871 872 872 873 874 874 875 876 877 877 877 877 878 878 878 878 878 878 878 878 878
827 831 832 832 833 832 828 830 832 832 833 831 832 833 832 832 833 833 834 834 833 829 828 827 826 828 832 834 836 837 838 839 839 839 839 840 840 840 841 842 843 843 844 844 845 846 847 848 848 849 850 852 853 854 855 856 856 857 858 859 859 860 861 862 862 863 864 865 866 867 867 867 868 869 870 870 871 872 872 873 874 874 875 876 877 877 877 878 878 879 879 879 879 879 879 879 879
827 832 833 833 834 831 828 830 831 832 831 830 832 831 831 833 832 834 833 829 827 827 828 828 827 829 830 832 834 836 837 837 838 838 838 839 839 839 840 841 841 842 843 843 844 845 845 846 847 848 849 850 852 853 854 854 855 856 857 858 858 859 860 861 861 863 863 864 865 866 867 867 867 868 869 870 871 872 873 873 874 875 875 876 877 878 878 878 879 879 879 879 880 880 880 880 880
825 831 832 832 833 830 829 831 831 831 829 830 832 830 832 832 832 836 833 826 827 829 829 828 828 829 830 832 834 835 835 836 837 837 838 838 838 839 839 840 841 841 842 842 843 843 844 844 845 846 847 848 850 851 853 853 854 855 856 857 858 858 859 860 861 862 863 863 864 865 866 867 867 868 869 870 871 872 873 873 874 875 876 877 877 878 878 878 879 880 880 880 880 880 880 880 881
826 830 832 831 832 831 831 831 831 831 830 832 832 831 833 833 835 835 829 825 828 830 829 829 829 830 832 832 833 835 836 836 837 838 838 839 839 839 839 840 840 840 840 841 841 842 842 843 843 844 845 847 848 850 851 852 853 854 855 856 856 857 857 859 860 861 862 863 864 864 865 866 867 867 868 870 871 872 872 873 874 875 876 877 877 878 879 879 879 880 880 881 881 880 880 881 881
829 829 831 831 831 831 832 831 831 832 832 832 832 832 834 835 837 831 824 826 830 831 831 831 831 831 832 833 834 834 835 836 836 837 837 838 839 839 839 839 839 839 839 840 840 840 841 841 842 843 844 845 847 848 849 850 851 852 853 854 855 856 857 858 859 860 861 862 862 864 864 865 866 867 868 869 870 871 872 873 874 875 876 877 878 878 879 879 880 881 881 881 882 881 881 882 882
829 830 831 831 832 833 833 832 832 833 833 832 832 833 834 835 837 829 823 829 832 830 832 833 832 832 833 833 834 835 835 835 835 836 837 837 838 837 837 837 838 838 839 839 839 839 839 840 840 841 842 843 845 846 847 848 850 851 852 853 854 855 856 857 858 859 860 861 862 863 863 864 865 866 867 868 869 871 872 873 874 875 876 876 877 878 879 879 880 881 882 882 883 882 882 883 883
830 830 830 832 833 832 834 833 833 835 833 833 832 834 835 837 836 826 824 831 832 829 831 834 833 833 834 834 835 835 835 835 836 836 835 835 835 835 836 836 837 838 838 838 838 838 839 839 839 840 841 842 844 845 846 847 848 849 851 852 853 854 856 856 858 858 859 861 861 862 863 864 865 865 867 868 869 870 872 873 874 875 875 876 877 877 878 879 880 881 882 883 883 883 883 884 884
830 831 831 833 832 831 834 834 834 835 833 832 834 837 838 836 830 823 827 833 832 831 831 833 834 834 835 835 836 836 835 835 835 834 833 834 834 835 836 836 837 837 838 838 838 838 839 839 840 840 841 842 843 844 844 845 846 848 850 851 852 854 855 856 857 858 859 860 861 862 862 863 864 865 866 867 868 870 871 872 873 874 874 875 876 876 877 878 879 880 882 883 884 884 884 885 885
831 834 835 837 835 833 835 836 836 835 834 832 836 841 835 827 824 824 831 833 831 832 831 833 834 834 836 836 836 835 835 834 833 833 833 834 835 835 836 837 837 837 838 838 838 838 839 840 840 840 841 842 843 843 844 845 846 848 849 851 852 853 855 855 857 857 858 859 860 862 862 863 863 864 865 866 868 869 870 871 872 873 874 874 875 876 877 878 879 881 882 883 884 885 885 886 886
834 837 840 847 844 834 833 837 836 834 835 833 835 843 834 821 821 825 832 833 830 829 830 833 834 834 835 835 836 834 833 832 831 832 832 833 834 835 835 836 837 837 837 837 838 839 839 840 841 841 842 842 843 843 844 845 846 848 849 849 850 852 854 854 855 857 858 859 861 862 862 863 863 864 865 866 867 868 870 871 872 873 874 875 875 877 877 878 880 881 883 883 884 886 886 887 887
841 841 843 853 850 837 832 836 836 831 834 835 835 842 836 823 821 826 833 834 831 828 829 833 833 833 834 834 834 833 831 831 831 831 831 832 833 833 834 835 835 836 836 837 838 839 839 840 841 841 842 842 843 843 844 845 846 848 848 848 849 851 853 854 855 856 858 859 861 862 863 863 864 864 865 866 867 868 869 871 872 873 874 875 876 877 878 878 880 881 883 883 884 886 886 887 888
847 848 845 849 849 844 837 834 836 833 833 836 835 837 832 823 823 830 835 834 833 830 828 831 831 832 833 832 833 831 831 830 829 829 828 830 831 832 833 833 834 835 835 836 837 838 839 840 841 841 842 843 843 844 844 845 845 847 848 849 849 851 852 853 854 856 858 859 861 862 863 863 864 864 865 866 866 867 869 870 872 873 875 876 876 877 878 878 880 881 883 884 884 885 886 887 888
849 853 850 849 850 848 840 833 835 835 834 835 836 837 830 821 823 829 833 834 834 831 826 827 829 831 831 832 832 830 830 829 826 825 825 827 828 830 831 832 834 834 835 836 837 838 838 839 840 841 842 842 843 843 844 844 845 846 848 848 849 851 852 853 854 856 857 859 861 862 862 863 864 864 865 866 866 867 868 870 872 873 875 876 877 877 878 879 880 881 882 884 885 885 886 887 888
842 848 847 849 851 851 846 836 833 835 835 835 837 839 832 823 823 825 829 834 833 827 825 826 827 829 829 830 829 828 828 825 821 821 824 826 827 828 830 831 832 833 834 835 836 837 838 839 840 841 842 842 842 843 844 844 845 846 847 848 849 850 852 853 854 856 858 859 861 862 862 863 864 865 865 866 866 867 868 870 872 873 875 876 877 877 878 879 880 881 882 883 885 885 886 887 888
836 841 842 843 843 845 844 837 834 835 835 836 836 835 830 824 822 820 824 832 831 826 826 826 825 825 826 826 825 824 824 820 817 820 823 824 825 827 828 830 831 832 833 834 835 836 837 838 839 840 841 841 842 842 843 844 845 846 847 847 848 849 850 852 854 856 858 859 861 863 863 864 865 865 866 866 867 867 868 870 872 873 875 876 876 877 878 878 879 880 882 883 884 886 887 888 889
838 842 843 844 845 842 837 835 835 836 836 833 832 833 830 825 822 818 822 829 829 826 825 823 821 821 821 821 820 819 818 815 816 820 820 821 824 825 827 828 829 831 832 833 833 834 835 836 837 838 839 840 841 841 842 843 845 846 847 847 848 849 850 851 853 855 857 859 861 862 863 864 864 865 866 866 867 867 868 870 871 873 874 875 876 877 877 878 879 880 882 883 884 886 888 890 890
840 842 843 847 850 844 835 834 836 837 838 833 831 834 831 825 822 819 822 826 822 818 817 815 814 815 815 815 814 813 813 814 816 817 818 819 821 823 825 826 827 829 829 831 832 833 834 835 836 837 838 839 840 841 842 843 844 846 847 848 848 849 850 850 852 855 857 858 860 861 863 863 864 865 866 866 867 867 868 870 871 873 874 875 876 877 877 878 879 881 881 883 885 886 887 889 891
843 847 848 848 850 846 837 837 840 839 838 833 832 835 829 823 822 819 820 820 813 811 810 807 806 807 808 808 808 809 810 812 814 814 815 816 818 820 822 823 825 826 828 829 830 832 833 834 835 836 837 839 840 841 842 843 844 845 846 848 848 849 850 850 852 854 856 858 859 861 862 864 865 865 866 866 867 867 868 869 871 873 874 875 875 876 877 878 880 881 882 882 884 886 888 890 891
844 847 850 847 848 847 837 836 841 839 839 837 835 837 831 821 820 815 812 812 809 807 806 804 803 801 799 800 802 804 805 807 809 811 813 814 816 818 818 819 822 824 826 827 828 829 830 832 833 835 836 838 839 840 841 842 843 845 846 848 849 849 849 851 852 853 855 857 859 861 862 864 865 866 866 867 867 868 869 870 871 873 874 875 876 876 877 879 880 882 883 883 883 885 888 890 891
843 845 847 844 843 843 839 839 840 838 841 843 839 837 827 818 818 812 806 810 808 804 804 802 799 797 795 797 797 798 799 800 804 807 810 812 812 813 814 816 819 821 822 823 824 826 828 830 832 833 835 836 838 838 839 841 842 844 846 848 849 849 850 851 851 852 854 856 858 860 862 864 865 866 866 867 867 868 869 870 872 873 874 875 876 876 877 880 881 883 884 884 884 885 887 890 892
842 840 839 837 835 837 840 842 842 841 842 845 845 840 826 816 817 811 805 808 804 799 801 797 792 792 794 795 793 793 795 796 799 802 805 807 808 810 812 814 816 817 818 820 822 824 826 828 830 832 833 834 836 837 838 840 841 843 844 846 848 849 851 851 850 851 853 855 857 860 862 864 865 866 867 868 868 869 870 871 873 873 875 876 877 878 879 881 882 884 884 885 886 886 887 890 892
845 837 833 834 836 839 841 841 843 844 844 848 850 846 835 820 811 806 804 803 797 795 796 791 788 789 790 790 788 789 792 793 796 798 800 803 804 807 809 809 811 812 815 818 820 823 824 826 828 830 831 832 834 835 837 839 840 842 843 845 847 848 850 852 851 851 852 855 857 859 862 863 865 866 867 868 869 869 871 872 873 874 875 876 877 879 880 882 883 884 886 886 887 888 889 890 892
841 836 835 835 836 839 840 840 844 847 847 849 848 848 846 830 811 806 804 803 800 796 792 787 785 785 784 785 785 785 787 788 792 794 796 798 799 801 802 803 806 809 813 816 818 821 822 825 827 828 830 831 833 834 835 837 838 840 842 844 846 848 849 850 851 852 852 854 857 859 861 863 865 866 867 868 869 870 871 871 873 874 875 877 878 880 881 883 884 885 886 887 888 890 890 890 892
836 839 841 839 839 840 841 842 846 854 854 848 845 849 848 830 812 810 810 807 803 794 786 783 781 780 780 780 780 782 784 785 788 790 791 794 795 796 798 801 805 808 812 814 816 819 821 823 825 827 829 829 831 833 834 836 837 839 841 842 845 847 849 850 851 852 852 854 856 858 860 862 864 866 867 868 869 870 871 871 873 874 876 877 879 881 882 883 884 885 886 888 888 889 890 891 892
837 843 842 841 845 845 845 846 845 854 856 846 841 846 844 824 804 807 812 807 798 787 782 780 778 778 778 777 778 779 782 784 786 787 789 791 793 795 799 803 806 808 811 813 816 818 820 822 824 825 827 828 830 832 833 835 836 837 839 841 843 845 847 849 850 851 852 853 855 857 859 862 864 865 867 868 869 870 871 872 873 875 876 878 879 881 882 883 884 886 887 888 889 889 890 892 893
837 838 835 837 844 844 849 852 849 855 854 840 834 838 842 831 808 800 799 793 787 781 777 775 774 774 772 774 777 778 781 783 785 787 789 791 794 797 800 802 804 807 810 812 814 816 818 820 822 823 825 827 828 830 832 833 834 836 837 839 841 843 845 848 849 850 850 852 854 856 858 861 863 865 866 867 869 869 870 872 873 875 876 878 880 880 881 883 884 886 887 888 889 889 890 891 892
834 831 831 838 844 846 851 855 856 859 849 837 840 843 845 837 811 796 791 784 783 781 776 772 768 768 767 771 777 779 781 783 785 787 789 791 793 795 798 799 802 805 807 810 812 814 816 817 819 821 823 825 827 828 830 831 833 834 836 838 839 841 843 845 847 848 849 850 852 855 857 860 862 864 865 866 868 869 870 872 873 875 877 878 879 880 881 883 884 886 887 888 888 889 890 891 892
834 831 836 844 853 856 855 858 864 862 847 843 851 847 842 829 803 793 791 781 778 780 779 775 770 769 767 770 776 778 781 783 784 786 787 789 790 791 794 796 798 801 803 806 809 811 814 815 817 819 821 823 825 826 828 829 831 832 834 836 838 839 841 843 845 847 848 850 851 853 855 857 859 861 863 865 866 868 869 871 873 874 876 878 879 880 881 883 884 886 886 887 888 888 890 891 893
833 830 834 843 857 863 859 862 868 858 842 845 854 846 835 818 794 786 783 773 771 775 778 778 775 774 772 772 776 777 781 782 782 784 785 786 787 788 790 793 795 797 799 803 805 808 811 813 815 817 818 821 823 824 827 828 830 831 833 835 836 838 840 841 844 845 848 850 851 853 854 856 858 859 861 863 864 867 868 870 872 874 876 877 879 880 881 883 884 885 886 887 887 888 889 891 892
831 827 829 834 842 847 846 847 848 840 836 844 850 840 821 802 786 780 779 775 775 775 776 778 778 779 780 778 777 776 778 780 782 783 783 784 785 786 789 791 793 795 797 800 803 805 808 810 812 814 816 818 820 822 824 826 828 830 832 834 835 837 839 841 843 845 847 849 851 853 855 856 858 858 860 862 863 866 868 870 872 874 875 877 878 879 880 882 883 884 885 886 887 888 889 890 891
834 832 831 830 828 827 833 843 845 844 845 843 839 826 806 792 781 777 779 775 772 773 775 775 773 777 781 777 775 775 776 779 781 781 781 783 784 786 788 789 791 794 796 798 800 801 804 806 809 812 814 816 818 820 822 824 827 828 830 832 834 836 838 839 842 844 846 849 851 852 854 856 857 858 859 861 863 865 867 869 871 873 874 876 877 879 880 881 882 884 885 886 887 888 889 890 891
831 834 828 828 828 822 828 845 855 857 849 831 822 813 801 794 781 772 775 770 767 771 770 767 767 772 776 770 768 773 775 777 779 779 780 782 783 785 787 788 790 792 793 795 796 798 800 802 805 808 811 813 816 818 821 823 825 826 828 831 833 834 836 838 839 842 845 848 850 852 853 855 856 857 858 860 862 864 866 868 870 872 874 875 877 878 879 880 882 883 884 885 886 887 889 890 890
825 829 823 825 831 828 830 840 849 856 849 827 817 810 802 799 785 772 775 774 768 767 765 764 766 768 769 763 762 769 772 774 777 777 779 781 782 784 785 787 788 789 790 791 794 796 799 801 803 805 808 810 812 815 818 820 822 824 826 829 831 833 835 837 838 840 843 846 848 850 852 854 855 856 857 859 861 863 865 867 869 871 873 874 876 877 878 880 881 883 884 885 886 887 888 889 890
817 817 816 820 826 830 836 840 839 845 845 827 817 814 804 797 785 770 769 768 761 759 761 764 762 759 760 757 756 764 770 773 776 776 778 779 780 781 782 784 786 788 790 792 794 796 798 800 802 804 806 808 811 813 815 818 820 822 824 827 829 831 833 835 836 839 841 843 846 848 850 852 853 855 856 857 859 861 863 866 868 870 872 873 875 876 878 880 881 882 883 885 886 887 888 889 889
819 818 819 820 821 825 830 834 833 834 835 825 814 807 791 782 776 765 761 759 752 751 757 759 754 752 754 752 752 761 767 771 773 774 775 776 777 778 780 782 784 787 789 791 793 795 797 799 801 803 805 807 809 811 813 815 818 820 822 824 826 828 830 832 834 836 839 841 844 846 848 850 851 853 855 856 858 860 862 864 866 869 870 872 874 875 877 879 880 882 883 884 885 887 888 889 889
814 817 820 821 823 827 827 829 830 827 828 829 822 800 772 765 767 757 752 754 751 751 752 751 751 751 751 751 754 760 765 767 770 771 772 774 775 777 779 781 783 785 788 790 792 793 795 797 799 800 803 805 807 809 811 814 816 818 820 822 824 826 828 831 833 835 837 840 843 845 847 848 850 851 853 855 857 859 861 863 865 867 869 871 872 874 876 878 879 880 882 883 885 886 887 888 888
800 804 807 808 812 821 824 826 827 825 821 820 820 799 761 752 759 751 749 752 750 754 753 747 749 749 746 750 756 760 761 763 767 768 770 772 774 776 778 780 782 783 785 787 789 791 792 794 796 798 801 802 804 807 810 813 815 817 818 820 823 825 827 829 831 834 836 838 841 843 845 847 848 850 852 854 856 858 860 862 864 866 868 870 871 873 875 876 878 879 880 882 883 884 886 886 887